Погода Гусь-Хрустальный

Погода Гусь-Хрустальный : погода сейчас, прогноз погоды и архив. Всё, что Вы хотите узнать о погоде Гусь-Хрустальный!

Хотите узнать прогноз погоды Гусь-Хрустальный? Тогда Вам сюда: Погода Гусь-Хрустальный

Поиск расширенной информации на нашем сайте:

Другие новости

Новости СМИ2

Главная страница сайта

Новости сайта

03.07.2017

Напоминаем, что на нашем специализированном сайте Метеоцентр.Азия вы можете получить высокодетализированные автоматические прогнозы погоды по пунктам России, СНГ и мира в авиационном формате (включающие направление и скорость ветра, видимость, явления погоды, количество и форму облачности, нижнюю и верхнюю границу облачности).


Погода Гусь-Хрустальный - сегодня

Время (UTC), дата Ветер
(°,м/с) 
Видим.   Явления Облачность Т
(°С)
Тd
(°С)
f(%) Тe
(°С)
Pmin
(гПа)
dP
(гПа)
Po
(мм)
O2
(г/м3)
Тmin Tmax R s Состояние
почвы
06 21.06.18 270 (З) 20000 м    8/6 300 м верхняя 
[Sc|Ci fib]
+18.9 +5.7 42 +19  1010.6  746  280           
09 21.06.18 270 (З) 4{12}  20000 м    8/5 300 м верхняя 
[Cu med, cong|Cs]
+21.4 +5.4 35 +21  1009.7  -0.7  746  278           
18 21.06.18 300 (СЗ) 20000 м    3/0 верхняя 
[Ci fib]
+18.7 +10.8 60 +22  1011.2  0.9  746  280           
21 21.06.18 тихо ()   20000 м    ясно 
+12.6 +11.2 91 +15  1012.4  0.8  747  286           
00 22.06.18 тихо ()   20000 м    ясно 
+10.1 +9.1 93 +10  1013.2  0.6  748  289           
06 22.06.18 140 (ЮВ) 20000 м    3/0 верхняя 
[Cs]
+23 +13 53 +28  1012.6  -0.3  748  275           
09 22.06.18 170 (Ю) 20000 м    6/5 300 м верхняя 
[Cu med, cong|Cs]
+26.1 +11.3 40 +29  1012  -0.5  747  273           
12 22.06.18 190 (Ю) 20000 м    4/3 600 м верхняя 
[Cu med, cong|Cs]
+28.2 +9.8 32 +29  1010.2  -1.6  746  271           
18 22.06.18 120 (ЮВ) 20000 м    3/0 верхняя 
[Ci fib]
+22.7 +12.9 54 +28  1009.4  -0.4  745  275           
21 22.06.18 150 (ЮВ) 20000 м    ясно 
+19.2 +13 67 +27  1009.7  0.1  745  278           
00 23.06.18 150 (ЮВ) 20000 м    ясно 
+15.4 +13 86 +23  1010.6  0.6  746  282           
06 23.06.18 040 (СВ) 20000 м    ясно 
+26.4 +15.4 51 +36  1010.6  0.1  746  271           
09 23.06.18 210 (ЮЗ) 20000 м    5/3 300 м верхняя 
[Cu med, cong|Ci fib]
+31 +12.4 32 +36  1010.2  -0.2  746  268           
12 23.06.18 130 (ЮВ) 20000 м    5/4 300 м верхняя 
[Cu med, cong|Ci fib]
+32.2 +10.6 27 +34  1009.9  -0.2  746  267           
18 23.06.18 120 (ЮВ) 20000 м    ясно 
+24.3 +13.2 50 +30  1009.6  746  273           
21 23.06.18 100 (В) 20000 м    ясно 
+19.4 +13.3 68 +27  1010.3  0.5  746  278           
00 24.06.18 тихо ()   20000 м    5/0 верхняя 
[Cs]
+17.3 +13 76 +23  1010.3  0.1  746  280           
06 24.06.18 120 (ЮВ) 20000 м    5/0 верхняя 
[Cs]
+28.6 +13.1 38 +34  1008.9  -0.9  745  269           
09 24.06.18 150 (ЮВ) 20000 м    8/0 верхняя 
[Cs]
+32.4 +8.7 23 +32  1008.9  0.1  745  267           
18 24.06.18 100 (В) 20000 м    9/9 300 м кучево-дожд. 
[Cb cap]
+24.5 +12.4 47 +29  1009.3  0.4  745  273           
21 24.06.18 250 (З) 20000 м    6/4 300 м кучево-дожд., верхняя 
[Cb cap|Cs]
+22.9 +11.6 49 +26  1009.7  0.4  746  275           
00 25.06.18 330 (СЗ) 20000 м    9/9 300 м кучево-дожд. 
[Cb cap]
+19.6 +14.5 72 +29  1010.6  0.7  746  278           
06 25.06.18 260 (З) 20000 м    9/9 300 м кучево-дожд. 
[Cb cap]
+17.1 +13.9 81 +25  1015.7  2.2  750  281  +17.1         
09 25.06.18 250 (З) 20000 м    9/9 300 м кучево-дожд. 
[Cb cap]
+16.9 +13 78 +23  1018.2  2.4  752  283           
12 25.06.18 300 (СЗ) 20000 м    8/5 300 м верхняя 
[Cu med, cong|Ci fib]
+20.6 +11.8 57 +24  1018.6  0.6  752  280           
Время (UTC), дата Ветер
(°,м/с) 
Видим.   Явления Облачность Т
(°С)
Тd
(°С)
f(%) Тe
(°С)
Pmin
(гПа)
dP
(гПа)
Po
(мм)
O2
(г/м3)
Тmin Tmax R s Состояние
почвы

Для получения пояснительной информации подведите курсор к названию столбца.

ПОГОДА Гусь-Хрустальный - архив

Всё, что Вы хотите узнать о погоде Гусь-Хрустальный - удобно и подробно!

Выберите нужную дату (начиная с 1 января 2015* года) и нажмите кнопку "Найти".
Будут отображены архивные сводки погоды по пункту Гусь-Хрустальный, начиная с указанной даты.


Отображать данные в формате CSV (для использования в таблицах Excel)


Внимание! Наш архив погоды предназначен исключительно для личного некоммерческого использования в познавательных целях. Если Вам необходимы официальные справки о состоянии погоды (для производственных, юридических, коммерческих и т.п. целей), обращайтесь в органы Росгидромета.

*Примечание: данная дата относится к архиву по метеостанциям СССР (Россия, СНГ, Балтия).
Архив по метеостанциям Зарубежной Европы и Азии (кроме Китая) хранится 10 дней, по другим регионам земного шара (Китай, Африка, Америка, Австралия, Океания) - 1 день.

Гусь-Хрустальный - район местоположения метеостанции


Название, широта, долгота, высота метеостанции:
Гусь-Хрустальный 55.6°ш. 40.6°д. 136 м над ур. моря [Российская Федерация]

Дополнительная информация

В oтличие oт бoльшинства пoгoдных сайтoв мы публикуем пoдрoбную метеoинфoрмацию в детальнoм прoфессиoнальнoм фoрмате.

Характеристики температуры и влажнoсти вoздуха измеряются на высoте 2 м в тени вдали oт зданий и деревьев.
Скoрoсть ветра измеряется на высoте 10 м (на урoвне рoста челoвека скoрoсть ветра ниже в 1.5-2 раза). Если метеoстанция нахoдится в гoрoде или в лесу, тo скoрoсть ветра занижена на 2-4 м/с пo сравнению с oткрытым местoм. Скoрoсть ветра над акватoриями крупных рек и oзёр, а также на вершинах хoлмoв на 2-5 м/с выше, чем в oбычных услoвиях.
Атмoсфернoе давление в разных тoчках местнoсти мoжет значительнo oтличаться oт давления на метеoстанции, в зависимoсти oт услoвий рельефа (при пoдъёме на 10 м давление пoнижается примернo на 1 мм рт.ст.).